Theta_e
319 318 317 317 316 314 314 313 312 311 309 317 315 321 319 312 311 318 326 326 324 317 307 313 309 306 309 310 309 310 309 307 308 306 307 305 306 306 305 305 305 306 306 305 305 306 304 304 303 305 305 306 308 309 310 311 309 309 308 309 311 318 308 302 302 307 309 312 315 315 317 316 310 315 316 311 308 309 307 305 305 302 305 303 304 301 311
318 318 317 317 315 314 314 312 312 311 310 313 317 320 314 315 315 317 324 328 323 314 303 304 305 307 311 309 309 310 309 308 306 306 307 305 305 304 305 306 307 307 308 307 305 307 301 304 304 304 306 305 309 309 312 311 308 308 308 306 313 304 310 304 301 300 302 304 308 310 314 314 312 314 317 318 318 315 313 310 309 302 303 306 302 299 310
318 318 318 316 315 314 313 312 312 312 311 312 317 315 317 319 318 315 320 325 321 309 310 308 306 307 308 308 306 308 308 309 309 308 306 307 306 305 304 306 308 307 309 307 308 307 306 303 306 306 306 306 309 310 314 313 312 312 316 319 314 306 308 306 298 295 293 294 294 299 302 307 314 316 316 318 316 313 312 302 304 298 311 306 302 307 317
318 318 318 316 315 314 313 312 312 312 310 308 318 319 319 311 307 312 315 318 317 317 318 315 311 309 309 306 307 307 305 306 306 307 306 307 307 307 308 308 309 307 306 305 305 305 307 305 305 306 305 307 308 309 314 318 314 319 319 317 317 311 311 310 310 301 298 301 307 309 311 309 308 310 314 314 315 317 314 309 303 299 308 308 311 315 316
319 319 318 317 316 314 313 312 312 312 310 308 315 321 317 316 309 314 308 316 314 314 316 313 312 308 311 306 307 304 305 305 305 306 304 307 307 307 307 307 304 306 305 304 304 305 305 307 307 305 305 307 308 309 312 315 318 322 317 321 315 311 307 311 313 307 308 308 309 312 313 308 310 311 311 315 314 314 310 306 303 317 304 299 317 322 316
319 319 319 318 316 314 313 312 311 311 310 309 318 315 316 308 316 318 321 309 307 309 310 315 313 313 310 308 307 305 304 304 303 304 306 308 309 305 306 306 306 306 305 306 302 304 305 306 304 306 307 306 307 307 309 310 317 319 312 315 313 309 306 311 311 307 308 312 311 313 311 311 311 311 312 313 315 315 311 312 313 315 306 301 315 321 319
320 320 320 319 316 315 314 313 311 310 309 311 321 312 314 313 311 313 319 314 315 315 316 315 315 314 311 310 309 306 305 303 305 305 304 305 306 307 303 304 306 306 307 306 304 306 301 302 308 307 306 305 306 305 306 308 311 311 310 311 319 311 308 311 312 310 312 312 312 312 310 310 310 311 312 313 313 314 316 316 317 314 318 318 318 321 320
320 320 320 320 318 315 315 313 312 311 308 317 319 313 312 310 309 311 313 311 309 313 316 315 314 310 314 308 309 308 307 304 305 305 305 303 304 308 304 304 306 306 307 308 305 306 306 306 304 307 307 306 307 306 307 306 309 310 308 309 315 311 310 313 311 311 309 311 311 313 311 310 309 311 313 313 314 315 316 317 317 318 318 320 319 319 318
320 320 320 319 318 315 315 314 312 311 309 320 314 312 314 315 319 320 313 307 309 313 313 313 312 310 312 308 310 309 308 306 308 307 308 306 305 306 304 306 307 308 308 308 306 308 308 308 307 309 308 304 309 306 307 309 306 307 308 308 309 308 308 313 310 305 306 308 309 309 309 309 309 310 311 312 310 310 312 314 317 317 315 318 317 316 317
320 320 320 320 318 316 315 314 312 310 309 321 318 311 317 318 320 320 318 308 317 306 312 312 310 306 311 311 312 310 309 311 309 306 308 308 309 309 307 308 307 308 307 306 307 309 309 309 310 310 310 310 310 310 309 309 308 307 307 310 306 307 308 306 304 300 303 308 308 307 307 307 302 305 312 314 315 315 318 320 322 321 320 316 313 316 324
320 320 320 319 319 317 316 315 313 310 318 317 316 315 314 311 312 317 319 308 310 308 308 308 308 311 312 313 312 313 312 311 313 306 306 307 307 309 308 308 307 307 307 310 313 314 312 312 312 312 311 310 309 309 309 309 309 310 308 307 308 309 306 304 307 300 303 306 306 307 303 295 298 314 318 316 313 314 313 315 319 321 322 320 325 325 327
320 320 319 319 319 318 316 316 313 311 313 320 319 316 314 314 313 315 315 308 305 308 305 303 308 311 310 313 312 311 311 312 312 314 310 308 309 308 308 309 310 306 314 315 314 313 314 313 313 313 311 310 309 309 309 308 309 313 311 308 307 306 307 305 308 301 301 305 304 299 294 297 312 319 320 319 319 318 317 319 321 321 323 323 323 324 323
320 320 319 319 319 318 316 316 314 311 311 319 318 315 315 314 310 314 315 311 306 307 304 304 308 306 307 308 308 310 312 313 313 313 314 312 312 309 309 310 310 312 315 313 312 312 308 306 308 308 307 307 308 308 308 308 308 309 310 310 308 306 304 306 304 304 304 300 300 292 294 307 315 317 319 321 321 320 319 317 320 322 322 324 322 323 325
320 319 319 319 319 318 317 316 315 314 311 313 317 316 316 314 312 316 315 310 307 310 309 306 306 305 304 304 306 309 310 310 312 314 311 314 312 310 310 313 313 314 315 315 312 311 308 307 303 304 303 305 305 303 306 308 308 308 308 309 310 308 307 305 302 306 297 300 300 299 309 307 311 312 315 315 313 315 316 309 317 323 323 324 322 323 324
319 319 319 319 319 319 317 316 316 315 314 310 318 316 316 316 312 311 315 312 306 309 312 303 308 308 307 308 309 307 307 309 309 311 314 313 310 312 312 313 314 315 315 313 310 310 307 305 300 300 301 299 295 298 306 303 308 310 309 309 311 312 305 306 301 301 302 298 297 299 298 295 302 314 318 320 319 317 318 315 317 323 325 325 324 322 322
319 319 319 319 319 319 317 316 316 315 314 309 317 315 315 317 316 313 314 313 312 305 309 312 311 308 307 307 308 306 306 309 311 312 311 311 309 310 310 312 313 315 314 311 312 308 306 301 299 298 296 298 302 301 300 303 302 307 309 309 308 310 310 308 302 300 301 299 296 296 295 298 309 315 316 318 319 317 318 311 307 321 325 325 324 322 324
319 319 318 319 319 319 318 316 316 315 315 311 315 314 314 317 315 313 312 312 311 306 313 313 313 312 309 306 306 307 310 307 311 307 306 308 308 308 307 311 314 313 312 310 310 306 303 302 303 302 302 304 299 298 304 302 301 302 306 307 307 305 305 304 301 300 301 299 297 295 300 299 312 315 316 317 320 316 314 299 302 319 323 325 324 323 323
318 319 318 318 319 319 318 316 315 315 313 311 314 313 313 317 316 315 312 311 310 310 314 315 311 308 307 308 306 310 310 310 311 313 309 311 309 307 307 308 307 310 313 307 309 303 303 302 299 299 298 308 308 304 292 301 299 301 301 302 302 302 303 303 299 300 300 299 298 300 302 313 316 316 318 318 318 315 303 297 310 324 324 326 326 325 326
318 318 318 318 319 319 318 316 316 316 315 310 316 314 313 316 317 316 315 313 311 307 314 313 315 313 314 313 311 312 312 310 310 306 308 308 310 310 310 312 313 305 308 306 308 304 301 303 307 303 299 305 305 297 305 299 300 304 305 301 301 302 303 304 303 300 299 300 297 298 303 314 316 319 318 320 314 301 302 313 322 326 324 326 326 326 328
318 317 318 318 318 318 317 316 316 316 315 310 312 313 314 316 318 317 312 310 313 310 314 315 315 312 314 311 310 309 310 309 310 308 307 306 314 311 308 304 309 311 307 311 304 306 303 301 303 306 300 301 304 309 302 304 308 305 303 306 302 302 300 299 299 302 303 302 298 296 291 311 318 319 318 319 309 311 317 322 327 327 327 327 326 327 326
317 317 317 318 318 317 317 316 316 316 316 314 311 314 312 317 317 317 317 314 310 308 312 317 315 315 315 314 314 313 311 308 311 308 311 310 314 308 299 300 306 307 305 306 300 303 304 301 305 303 306 305 309 304 299 302 303 311 310 306 304 312 300 301 302 305 298 298 296 295 309 314 321 318 312 316 320 322 327 324 324 327 327 327 327 328 328
317 317 317 317 318 317 316 316 315 315 315 315 312 314 312 316 317 318 317 315 308 308 314 317 317 315 316 316 317 318 316 315 315 316 311 309 315 309 309 309 311 311 314 313 306 307 307 306 309 305 302 303 309 301 306 300 298 308 311 310 300 310 305 312 301 308 303 301 307 317 320 320 321 323 320 325 324 328 329 328 327 326 327 330 327 328 329
317 317 317 317 317 316 316 315 315 315 315 315 314 313 310 313 314 318 316 309 311 312 314 314 316 317 318 319 320 320 319 319 316 315 315 310 308 311 310 309 308 314 315 315 311 308 308 307 304 306 304 306 305 303 306 302 301 305 302 309 311 312 316 318 311 308 315 315 318 320 320 319 320 321 323 324 324 327 328 328 327 329 330 330 328 330 330
316 316 317 317 316 316 315 315 315 315 315 315 314 314 312 313 314 314 312 310 307 305 311 315 312 312 312 313 318 320 320 319 318 317 318 316 306 307 312 314 313 311 317 323 320 314 314 309 312 310 303 308 308 303 300 299 302 307 306 306 307 315 312 311 305 314 304 300 316 317 320 320 320 321 326 329 329 330 329 329 329 330 330 330 331 332 331
316 316 317 316 316 315 315 315 315 315 315 314 314 315 315 313 314 313 309 304 306 306 303 309 312 317 318 319 320 318 320 322 322 320 317 316 313 308 309 317 318 315 318 318 322 317 316 309 309 306 302 314 310 301 308 304 304 309 302 306 307 307 316 311 309 311 305 309 316 320 322 325 325 324 323 325 330 331 331 331 332 332 332 332 332 333 331
316 316 316 315 315 315 314 315 315 314 314 313 313 313 312 312 315 318 314 312 309 306 301 302 308 317 318 315 314 317 321 321 321 320 318 317 316 315 314 317 318 322 320 318 318 316 313 311 311 309 304 309 314 305 305 308 312 312 307 305 317 317 314 305 310 307 313 318 320 320 322 323 324 326 328 328 329 330 331 332 332 332 331 332 332 332 331
316 316 315 315 314 314 314 314 314 314 313 313 313 315 313 314 316 313 311 310 306 303 305 302 310 313 316 312 315 316 316 316 317 318 318 318 317 318 317 316 314 316 316 316 318 317 315 315 309 306 308 312 313 313 314 310 308 307 305 312 317 311 306 313 310 306 307 306 313 317 310 311 319 322 326 329 331 331 329 329 328 330 330 330 329 329 329
315 314 313 313 313 313 313 313 313 313 312 313 314 313 314 312 314 315 315 313 308 303 305 305 305 308 314 311 316 317 317 317 316 315 316 317 317 317 317 317 317 314 315 313 312 311 311 306 305 315 315 314 310 308 315 317 315 309 308 310 313 308 313 311 306 304 304 312 317 321 319 318 320 323 325 330 330 330 328 327 328 329 330 330 328 326 326
314 313 312 312 312 312 312 312 312 312 312 312 313 312 312 314 315 314 314 315 314 307 305 306 309 309 307 311 316 314 315 315 314 314 314 316 317 316 314 315 315 314 314 314 314 314 313 311 316 311 309 317 311 308 308 304 304 302 307 314 315 315 321 316 313 313 313 317 319 322 319 316 321 323 326 327 330 329 328 329 329 329 329 329 328 328 326
312 312 311 311 311 311 310 309 310 311 313 312 311 311 308 311 314 314 314 315 314 310 302 302 301 309 316 313 312 312 313 315 314 313 313 314 316 315 314 314 315 316 315 314 315 310 312 313 314 316 317 323 313 312 304 304 303 306 317 319 319 323 324 320 318 315 314 320 322 323 322 323 324 326 326 327 329 328 326 328 328 329 329 330 328 328 328
312 311 311 311 312 312 312 312 312 312 312 311 310 307 307 305 310 315 314 315 315 310 306 306 303 310 310 316 314 312 313 313 313 312 312 313 314 315 316 316 316 316 312 314 311 310 314 309 311 316 317 318 320 310 306 305 302 305 312 318 322 323 320 321 327 325 324 327 328 327 324 324 324 323 325 327 328 328 328 328 330 330 330 330 329 329 328
311 311 311 312 312 312 312 312 312 312 312 309 308 308 309 309 311 315 314 315 314 309 306 303 305 307 308 309 313 314 313 314 313 313 313 314 312 314 317 316 315 317 315 313 314 312 311 318 314 315 313 318 318 310 309 306 302 304 313 316 321 323 323 324 324 326 329 330 326 320 322 324 323 321 320 326 327 327 327 329 330 331 331 330 331 330 330
311 311 311 312 312 312 312 312 312 313 312 313 313 312 312 312 312 313 315 315 312 310 310 305 301 306 304 308 311 313 314 313 312 312 312 315 313 314 313 317 319 318 320 314 307 307 313 315 315 311 314 322 314 308 307 305 307 312 314 317 320 326 326 326 324 325 327 328 322 317 318 321 321 324 325 325 327 326 327 328 329 331 330 330 330 331 331
311 311 311 312 312 312 313 313 313 312 312 310 309 311 316 312 312 311 314 315 311 311 309 304 302 304 305 313 307 312 315 311 312 312 309 316 321 314 314 315 318 312 313 311 313 314 314 316 310 312 315 313 315 308 303 307 312 313 316 318 326 325 325 323 323 322 325 326 324 326 325 327 327 327 326 326 326 328 327 328 327 326 326 326 328 330 332
311 311 311 312 312 313 312 312 311 310 308 310 312 317 315 312 312 313 313 313 306 306 306 306 307 303 304 304 303 308 315 313 310 312 309 314 319 315 316 311 315 310 310 319 313 312 308 309 315 307 304 314 308 303 304 308 313 314 316 318 323 324 322 319 320 323 324 326 328 329 330 330 330 327 325 325 325 327 326 325 325 325 323 323 326 329 331
311 311 311 312 312 313 313 311 310 309 308 310 312 316 314 313 313 316 316 315 311 306 306 307 307 303 304 301 301 308 315 311 315 315 317 315 314 319 318 312 306 310 317 311 307 310 309 317 309 303 312 306 304 305 310 315 313 314 314 313 320 323 322 321 323 323 324 327 328 327 328 329 327 327 327 326 327 327 326 324 324 324 323 323 325 327 326
310 311 312 312 312 310 307 309 312 311 312 316 316 316 315 316 317 316 312 310 313 314 306 305 303 305 307 305 309 313 311 305 312 311 311 309 310 315 313 309 305 313 311 308 308 308 313 317 310 305 306 303 307 316 318 317 316 316 316 318 322 327 325 325 326 326 324 325 326 324 325 325 325 328 327 326 327 327 325 323 323 323 322 322 324 325 326
311 312 311 309 309 306 307 309 312 315 317 315 315 313 312 313 306 307 307 304 309 311 309 308 303 308 313 307 304 313 310 307 312 307 309 314 309 309 315 311 308 309 301 304 309 317 314 311 307 304 307 312 318 323 323 322 321 324 323 323 326 328 328 330 328 324 322 320 320 322 322 323 325 328 327 327 327 325 325 326 326 325 324 323 323 324 324
310 311 309 309 308 307 309 313 318 316 317 317 316 311 308 312 308 303 304 307 308 304 308 306 304 310 309 307 308 315 310 306 306 309 305 313 311 306 311 305 308 307 299 302 307 314 304 306 307 305 304 310 311 317 321 325 326 327 327 327 329 330 330 328 327 324 322 322 322 324 324 323 325 326 328 328 327 327 327 327 325 324 324 324 324 325 325
308 306 307 307 308 311 318 317 316 316 316 310 313 310 304 310 304 298 309 299 301 306 309 303 310 311 311 307 306 306 314 309 304 305 309 309 315 309 310 311 310 305 299 299 305 312 303 301 305 303 302 306 311 317 320 321 321 322 326 328 326 329 330 328 326 327 326 327 328 327 327 328 329 329 328 328 327 326 326 326 326 325 325 325 325 324 323
306 308 309 309 314 315 317 319 319 317 312 309 309 308 306 298 307 307 304 301 301 303 311 308 311 308 310 311 310 305 317 315 316 315 315 310 316 314 306 303 313 304 301 301 311 309 307 303 304 302 302 312 314 319 320 320 321 321 323 330 329 328 329 327 326 327 326 326 329 329 328 328 329 330 329 329 328 328 327 326 326 325 325 326 327 325 325
310 309 312 313 314 316 317 315 314 311 310 311 302 297 300 302 306 304 305 298 299 305 308 308 305 307 307 310 310 311 312 317 315 313 311 306 311 310 309 308 307 301 298 306 312 308 306 300 299 299 306 314 318 320 320 319 321 320 322 328 329 329 328 326 325 326 327 328 330 329 328 328 329 331 331 330 329 329 328 328 327 327 326 328 327 326 326
309 311 313 311 312 313 316 304 310 309 296 295 294 292 299 293 299 299 302 306 310 306 309 313 313 313 313 314 311 313 310 315 309 310 306 307 313 312 307 305 304 295 304 313 307 302 299 296 297 302 309 314 317 318 319 319 321 322 321 326 331 331 329 327 327 327 328 328 329 331 330 330 331 332 332 331 330 330 330 330 329 328 328 327 327 327 327
312 311 308 310 308 309 309 293 308 302 294 297 294 289 296 296 299 301 300 302 307 304 309 307 309 308 305 311 310 308 309 311 313 313 310 314 308 307 305 297 300 310 313 305 305 300 299 302 303 306 314 316 316 318 320 320 320 322 322 328 331 329 328 327 328 327 327 328 329 331 330 330 331 331 332 331 330 330 329 330 330 330 330 329 328 329 329
307 306 305 302 298 302 298 290 307 298 291 296 298 299 299 296 300 301 301 308 308 306 310 310 311 310 307 314 313 311 310 307 315 306 305 307 303 307 302 300 308 307 301 299 301 300 302 301 308 311 313 314 315 318 320 323 323 322 322 327 326 326 326 325 326 326 326 327 327 328 328 330 331 330 330 331 331 331 330 330 331 330 330 329 329 329 330
306 299 297 294 291 294 294 292 294 292 300 303 301 303 302 303 303 304 309 310 308 309 310 311 311 311 308 312 308 307 310 310 305 304 310 308 301 298 306 313 309 302 301 300 296 293 298 302 308 309 312 314 316 319 320 322 326 328 325 323 325 326 325 325 326 326 326 326 327 327 329 330 329 329 329 331 332 331 331 332 332 330 330 329 327 327 328
306 307 301 297 293 296 302 292 295 300 304 305 306 307 306 307 308 309 311 311 308 310 311 314 314 313 309 309 309 309 309 309 305 309 309 302 300 304 307 302 297 299 295 294 296 298 300 304 308 311 312 315 317 319 320 322 326 325 324 324 326 326 326 326 326 326 327 327 327 327 329 329 329 330 330 329 330 331 331 332 331 331 330 328 328 328 326
296 304 305 291 290 295 293 299 304 305 307 307 308 310 310 311 308 306 310 311 312 312 312 312 309 310 307 314 308 306 306 309 305 307 307 304 306 302 296 299 299 301 301 297 297 302 304 306 309 311 314 318 319 318 318 319 322 323 324 324 325 326 326 326 326 327 327 327 327 328 328 330 329 328 328 328 329 330 331 330 331 331 330 330 328 327 325
306 297 294 293 299 300 300 304 304 301 304 307 308 308 308 308 306 308 313 313 312 312 315 312 311 308 304 310 306 305 302 307 296 296 306 304 299 294 295 292 295 294 301 302 302 304 305 309 312 315 318 318 318 318 321 322 321 322 320 322 323 325 328 327 327 328 328 327 328 328 329 330 329 328 328 328 327 328 329 330 330 330 330 328 326 325 324
298 297 301 298 299 301 304 305 303 302 304 305 306 306 308 306 305 310 313 312 315 314 314 312 312 306 307 307 298 303 298 306 302 300 301 298 300 301 299 294 297 299 301 305 306 307 310 313 315 315 317 317 319 321 324 323 325 325 325 324 324 325 326 326 327 328 327 327 328 329 330 329 328 327 327 326 326 327 328 328 329 329 328 327 326 325 324
304 301 300 307 302 303 303 298 298 299 301 303 304 305 306 305 306 309 314 314 314 312 308 302 305 305 299 297 296 292 298 306 303 300 299 299 302 299 298 298 301 304 305 310 311 310 312 315 314 314 317 319 321 320 321 326 326 326 326 326 326 325 326 326 327 327 327 327 328 325 328 328 329 328 328 328 325 325 325 325 327 327 326 326 325 325 323
295 293 298 304 306 305 305 305 305 304 304 306 305 308 309 305 309 312 317 316 312 306 304 309 304 299 295 294 300 305 309 303 299 301 298 302 305 301 301 303 305 309 310 311 312 313 313 315 317 316 317 321 322 324 326 327 326 327 326 325 325 325 325 325 326 326 326 326 327 327 328 329 329 328 326 324 324 323 321 321 323 325 324 324 324 324 323
Wind_Speed
16 17 17 18 19 18 19 21 21 22 25 12 9 7 4 3 5 4 2 1 5 6 8 4 6 9 1 4 4 2 5 4 2 5 5 6 4 4 6 1 4 2 2 2 1 4 1 2 2 3 3 4 4 5 4 3 5 6 1 5 4 3 4 6 3 7 3 3 3 4 3 4 6 3 6 6 10 9 8 8 4 7 5 8 6 8 4
15 16 16 17 18 18 19 20 20 18 18 8 8 6 5 5 5 2 4 2 4 6 8 8 9 8 4 5 3 4 4 5 5 7 5 6 6 8 4 5 3 2 1 3 4 2 4 4 4 5 2 3 5 2 3 2 4 3 3 6 5 7 3 7 2 4 6 3 6 4 3 6 4 1 3 3 3 7 4 1 1 9 6 4 5 6 3
15 15 16 16 17 18 19 19 20 19 15 10 5 6 5 5 3 4 2 3 5 8 4 6 6 7 7 6 9 7 6 6 8 6 6 5 5 4 6 2 2 3 1 2 2 3 6 2 2 3 3 4 2 3 3 2 3 1 5 5 1 6 3 2 8 8 8 9 6 5 7 4 1 1 1 3 5 8 9 11 8 8 4 1 9 2 4
14 15 15 15 15 17 18 19 20 20 16 11 5 5 5 3 4 4 5 4 6 5 3 5 6 4 6 8 7 5 7 6 5 6 5 3 4 4 2 4 4 4 5 5 6 5 3 7 4 6 5 5 3 3 1 2 1 5 4 5 5 3 1 2 4 2 4 8 3 2 2 2 6 1 1 2 2 4 7 7 8 9 2 6 2 9 10
13 14 14 14 13 16 17 18 20 21 16 8 4 4 3 3 3 3 2 2 6 4 3 5 5 6 2 7 3 9 8 3 6 6 5 7 6 5 5 3 7 6 7 5 4 3 5 3 5 5 3 2 2 4 0 4 5 3 3 1 4 3 5 1 1 4 5 9 8 5 6 6 2 1 5 4 3 2 7 9 6 4 2 8 6 8 9
12 13 14 13 12 14 16 17 20 22 20 10 4 4 2 3 2 3 3 4 1 6 7 2 4 2 4 4 1 5 7 7 7 7 4 4 6 6 7 7 8 5 7 3 6 5 4 5 6 6 2 4 5 6 7 5 5 6 3 2 5 4 3 2 1 7 5 11 10 7 6 6 5 6 6 8 6 4 1 2 2 5 5 5 5 4 9
12 12 13 13 11 12 15 17 19 22 24 15 5 6 1 3 3 1 1 5 2 5 7 6 5 5 5 3 5 7 8 8 7 4 8 7 7 9 6 8 8 8 5 7 3 4 6 7 3 5 6 5 3 4 5 4 5 6 2 1 1 4 0 2 4 4 6 4 4 4 5 6 6 5 7 7 8 8 5 4 3 1 2 6 9 7 9
11 11 12 12 11 10 12 15 17 21 26 15 3 5 5 4 5 1 3 6 7 6 5 5 5 7 4 5 7 7 6 8 6 6 7 8 9 7 10 7 6 5 7 6 6 7 6 3 6 6 6 4 6 4 4 1 4 4 3 2 3 6 3 2 3 3 3 2 2 3 3 3 5 5 5 5 5 6 7 5 5 4 6 7 9 10 8
11 11 10 10 10 9 11 13 15 19 21 5 5 3 5 4 3 3 5 6 2 3 6 5 5 7 5 8 5 6 6 5 2 5 7 10 7 10 11 8 5 5 7 7 8 3 4 4 5 5 8 7 6 7 4 5 5 4 4 3 3 5 2 4 3 5 5 4 1 1 1 4 2 3 3 4 2 3 4 3 3 2 4 6 8 7 6
10 10 9 10 8 6 9 10 12 16 19 4 5 3 4 4 3 3 4 5 3 5 2 5 4 8 4 2 1 3 3 0 1 7 8 10 6 5 8 7 6 8 8 9 7 2 3 1 3 0 0 2 1 4 1 3 4 4 3 1 4 2 3 5 5 7 5 7 6 2 5 6 6 6 3 3 5 4 4 3 1 4 0 5 5 5 7
10 9 9 9 7 5 6 7 9 14 11 7 5 4 5 5 3 3 4 6 4 4 4 5 8 2 3 1 3 2 3 1 1 7 4 9 7 4 6 7 9 6 9 2 6 6 6 5 4 3 2 2 3 3 3 3 1 3 3 5 2 4 6 5 3 7 1 5 5 6 7 9 4 4 3 2 1 1 1 2 3 4 3 2 4 8 9
10 9 9 8 6 3 3 5 5 7 10 5 4 3 4 3 4 4 4 6 4 1 4 5 5 1 7 1 4 5 6 5 4 3 7 3 1 2 7 9 8 8 8 8 8 8 8 6 5 4 1 2 2 3 6 4 3 3 4 6 3 5 5 4 3 7 4 2 4 6 10 4 6 1 2 1 2 3 3 4 2 4 3 6 8 9 11
11 9 8 7 6 2 1 3 2 3 7 5 4 3 3 2 4 4 4 5 6 4 4 4 1 7 7 8 8 7 6 7 8 8 8 9 7 4 7 8 10 3 7 10 10 9 6 6 4 2 2 3 3 4 6 5 3 3 3 4 5 4 6 3 6 5 2 5 5 8 2 2 4 4 2 3 1 0 5 4 4 4 5 8 8 9 9
11 10 8 6 6 4 2 2 2 0 1 6 3 2 1 2 3 3 3 4 6 3 3 7 9 9 8 8 7 8 8 9 8 6 7 7 9 9 6 6 2 3 6 9 8 7 4 4 6 6 7 6 5 7 7 3 2 3 3 3 4 6 3 5 5 2 7 5 6 4 4 5 6 6 6 5 2 3 4 3 6 5 3 6 8 9 9
11 10 8 7 7 4 4 2 1 1 1 4 3 2 2 1 2 4 4 4 7 6 3 6 4 3 3 4 4 6 7 6 6 7 6 3 7 6 4 4 3 4 8 9 6 6 5 3 6 5 5 5 7 7 7 8 5 1 2 2 4 4 7 2 6 4 6 7 7 7 5 8 4 5 5 7 2 1 1 3 5 4 4 4 9 9 10
10 9 8 8 8 6 4 4 3 3 2 6 3 2 1 2 2 3 4 5 5 7 3 3 4 3 4 4 4 5 5 4 4 5 5 6 6 5 3 2 4 7 8 7 5 6 6 6 6 5 6 5 2 2 6 6 6 7 5 5 7 6 5 2 7 3 5 7 8 6 7 1 4 7 5 6 3 3 3 4 4 7 7 6 9 9 9
10 9 8 8 8 6 5 4 4 3 3 4 3 2 1 3 3 2 3 4 5 8 3 3 3 4 5 5 5 7 4 5 2 5 7 7 4 1 3 4 6 9 10 7 6 7 6 7 6 5 3 3 4 6 1 4 7 8 8 8 8 8 8 7 8 8 5 7 6 7 4 1 4 6 7 6 4 2 3 8 3 5 10 9 10 11 10
9 8 8 8 8 7 6 5 4 3 4 5 4 2 2 3 4 3 4 5 6 8 8 6 7 7 5 4 4 3 2 4 4 2 5 2 2 4 2 6 8 4 4 9 7 8 7 6 7 6 5 5 0 3 5 4 9 8 9 9 9 8 8 7 9 7 5 5 7 5 4 6 7 7 6 6 3 3 7 5 6 8 8 9 10 10 10
8 8 9 9 9 7 6 6 5 4 5 5 4 2 3 4 4 5 5 5 6 7 2 4 3 6 4 3 5 3 3 4 3 4 3 5 1 5 5 4 4 7 7 8 7 8 7 6 3 5 6 5 4 5 3 6 7 4 4 8 8 8 6 7 7 8 7 6 7 6 1 6 4 6 6 6 5 7 3 4 2 9 10 9 10 11 10
8 9 9 9 9 7 7 6 5 5 5 6 4 2 2 3 5 6 5 6 6 10 10 10 8 11 6 7 5 4 4 6 4 5 4 4 5 7 5 6 5 3 9 6 9 6 7 8 4 3 7 4 5 1 5 4 1 5 8 6 7 7 8 8 9 6 2 3 8 2 4 2 5 10 6 3 7 3 3 5 7 8 8 9 8 9 10
8 8 9 10 9 7 7 6 6 5 6 5 5 3 3 3 4 5 5 5 5 8 8 2 6 8 9 11 11 10 9 8 2 4 3 5 4 3 5 5 4 7 7 8 10 9 6 7 5 5 2 4 4 3 6 4 8 2 3 5 7 4 8 7 5 3 6 6 6 2 4 6 8 9 2 8 0 5 4 5 7 6 7 7 7 7 10
9 9 10 10 8 8 6 6 6 6 6 5 5 2 4 3 4 3 3 3 7 10 7 10 10 11 11 11 10 8 9 9 9 6 6 6 2 5 5 6 6 3 3 3 7 2 4 3 2 4 6 5 3 7 3 6 8 7 2 2 7 7 5 4 2 6 8 2 2 5 1 4 6 2 4 3 4 2 2 2 4 7 6 6 6 8 9
9 9 10 10 8 7 6 6 7 6 7 6 5 3 4 2 2 3 4 6 8 11 12 12 11 12 13 16 17 16 15 12 12 10 8 6 6 4 5 4 5 2 3 4 5 5 3 6 6 3 5 5 6 5 6 8 2 7 7 6 3 2 1 1 3 4 1 1 1 1 2 3 4 5 2 2 4 2 2 3 4 4 5 6 6 9 9
10 9 10 8 7 7 6 7 7 8 7 7 6 4 4 3 3 3 4 5 5 9 9 9 7 5 2 2 2 7 10 12 14 13 10 8 7 4 4 6 4 4 1 6 3 4 1 3 1 3 6 4 6 6 7 8 8 4 4 6 5 3 3 4 4 4 4 3 5 3 2 3 5 4 3 2 2 4 3 5 4 5 6 6 5 9 10
9 9 9 8 7 6 6 7 7 8 6 7 6 4 4 4 4 4 4 3 3 4 6 2 7 7 7 4 5 7 8 7 7 10 12 12 12 9 2 6 3 4 4 6 5 5 4 4 4 5 8 4 5 7 3 6 5 5 8 5 5 7 5 5 3 5 6 2 6 3 4 2 2 4 6 6 5 5 4 4 5 6 6 5 7 9 11
9 9 8 7 6 5 6 7 7 8 7 6 5 4 4 4 2 4 4 5 3 3 5 6 2 2 3 7 7 5 1 5 8 10 12 13 14 14 12 7 4 2 6 6 5 5 5 6 5 5 6 3 2 6 5 2 3 4 8 1 2 5 9 5 6 6 3 4 3 4 4 4 5 4 3 5 6 6 6 6 7 7 8 8 9 9 11
9 7 7 6 5 5 5 6 8 8 6 6 6 5 5 5 4 6 5 3 4 5 7 7 6 5 4 11 12 11 12 11 11 11 11 12 12 11 11 10 8 7 6 6 4 5 4 5 7 8 6 1 6 1 2 3 5 5 6 4 5 7 7 4 7 7 7 5 7 9 6 6 7 8 7 6 7 7 8 8 8 8 9 9 11 11 11
6 6 5 4 5 5 4 4 5 4 4 5 5 6 6 6 6 6 6 6 6 5 7 7 7 9 15 18 11 6 5 8 10 13 13 13 13 11 11 10 7 6 4 4 4 5 6 8 10 1 3 4 5 4 0 3 1 6 6 6 8 8 6 7 7 6 6 5 9 12 4 1 7 9 9 9 8 8 9 9 9 9 10 10 12 13 12
7 6 6 5 4 3 4 3 3 4 2 4 5 6 7 8 7 7 7 7 6 6 7 10 11 10 5 5 7 9 8 9 10 11 11 12 12 12 10 9 8 6 4 4 5 6 6 7 0 4 3 3 4 4 5 6 6 7 5 7 10 5 8 9 5 4 2 1 9 10 5 2 9 10 10 9 8 9 9 9 10 10 10 10 11 11 13
8 7 6 5 4 4 4 5 5 3 3 5 5 5 4 3 2 5 7 7 7 5 4 6 6 2 7 6 6 4 4 6 8 11 12 10 11 10 9 8 7 6 4 3 2 5 4 2 1 2 2 0 4 3 7 5 6 4 3 6 9 5 6 7 4 5 2 4 8 9 4 4 10 11 10 9 9 9 9 10 11 11 10 10 11 11 11
8 7 5 4 4 5 7 7 6 4 5 5 4 4 5 3 4 2 5 7 7 5 4 4 8 8 8 5 6 5 4 4 7 9 11 11 9 9 7 6 5 6 5 4 3 4 4 4 4 2 2 2 3 5 5 5 6 6 4 5 7 7 7 7 3 4 4 7 9 9 6 8 11 10 10 10 9 10 10 10 10 10 11 11 11 11 11
7 6 4 3 4 5 5 6 6 7 6 5 6 3 4 4 3 4 4 6 7 5 4 5 6 5 4 2 2 2 4 4 5 6 6 7 7 7 8 9 6 7 5 4 2 2 2 2 0 4 3 1 4 3 3 5 6 5 2 5 5 6 6 6 5 4 4 9 12 10 8 10 12 12 11 12 11 10 12 12 11 11 11 10 10 10 11
6 5 4 4 4 4 5 6 7 7 5 5 12 11 8 7 7 3 1 5 6 4 2 3 5 4 4 2 3 2 3 3 6 6 5 5 5 7 7 7 5 5 5 3 2 2 1 0 2 3 2 2 2 2 4 6 6 3 3 3 2 4 5 4 6 5 6 9 12 11 11 13 13 10 12 13 12 12 13 13 12 12 11 11 12 11 11
5 4 5 4 4 4 4 4 5 5 6 5 6 5 5 15 10 10 5 4 3 2 2 3 4 4 6 3 5 5 5 3 6 7 5 4 4 7 6 7 7 6 5 6 3 2 1 1 2 4 3 3 0 3 6 6 5 5 3 2 1 3 4 5 6 7 7 8 9 2 6 10 11 10 13 12 13 12 13 12 13 13 12 12 13 12 11
5 5 4 4 5 5 4 5 4 5 4 3 4 0 7 10 9 10 8 5 3 4 4 3 3 5 5 3 4 5 7 6 5 6 5 5 4 6 6 7 6 8 6 3 5 4 5 5 3 6 6 2 4 6 6 3 1 3 5 5 4 3 5 6 7 8 7 8 6 4 8 14 13 13 14 14 14 14 14 13 14 14 12 11 12 13 12
5 4 4 5 4 5 5 4 4 4 4 3 1 6 9 9 7 8 8 4 4 4 2 2 2 5 4 4 2 4 6 2 1 3 1 4 5 1 3 4 9 2 2 7 6 7 7 4 4 7 3 6 9 6 2 1 6 7 6 9 7 8 8 10 9 11 9 9 7 7 9 13 13 14 14 14 14 14 14 14 14 13 12 11 12 12 12
3 4 5 5 4 3 4 4 3 5 2 5 6 10 13 12 6 6 4 4 4 4 4 4 5 5 4 4 3 1 6 1 1 4 5 6 4 3 4 5 5 1 4 6 8 7 4 3 6 7 8 10 7 4 3 5 9 10 10 9 8 8 7 6 6 11 11 10 9 8 8 12 12 11 13 14 14 14 15 15 14 13 13 13 12 11 11
4 5 4 4 3 4 3 4 3 6 11 12 12 8 5 5 3 4 3 4 3 4 5 4 7 6 3 4 3 5 5 0 1 3 4 1 5 4 3 5 1 2 6 5 1 5 2 4 7 10 8 7 3 3 5 7 9 9 9 8 7 7 6 5 9 11 12 11 9 10 9 11 12 12 13 15 16 16 14 13 12 11 11 11 12 11 11
4 4 3 3 3 2 1 7 7 9 6 3 4 3 4 4 4 3 4 3 3 5 5 6 7 4 5 5 5 0 3 4 3 3 4 3 2 4 2 4 3 1 0 1 2 0 3 3 4 6 8 6 7 8 7 5 5 4 5 5 5 5 6 7 10 13 13 13 14 15 15 14 15 14 13 13 14 14 13 13 12 11 11 11 11 11 12
4 5 4 3 4 4 5 7 5 5 5 5 4 4 2 4 4 1 3 2 3 4 3 6 5 5 4 5 5 1 3 4 2 1 2 3 3 2 2 0 4 4 5 6 2 3 5 6 4 3 8 10 9 9 8 6 7 8 7 6 6 6 7 8 10 10 12 12 13 15 15 15 16 15 15 14 15 14 14 13 12 11 12 12 12 12 13
3 3 4 2 3 3 2 2 4 5 5 5 4 3 2 2 4 2 2 4 4 2 4 4 2 4 4 4 4 4 4 2 0 1 4 1 1 2 4 4 0 3 4 5 5 4 4 6 6 7 7 3 5 4 5 6 8 8 9 6 6 7 8 10 11 11 11 8 6 9 11 11 13 14 15 17 16 15 14 14 13 13 14 13 14 13 12
0 2 3 3 2 1 3 4 5 5 3 2 2 3 3 3 1 3 4 4 3 3 5 4 4 3 2 3 1 3 1 2 2 2 3 2 1 2 2 3 2 4 5 2 3 3 3 6 7 6 7 7 4 3 5 7 11 13 13 10 9 9 9 10 11 10 10 8 6 8 10 11 12 12 12 15 15 14 14 13 13 14 15 14 14 12 12
2 4 4 3 3 4 4 3 4 2 1 2 1 2 2 2 4 5 4 5 0 3 3 1 1 1 1 2 2 2 2 1 3 3 4 1 2 2 3 3 3 3 4 5 5 2 5 5 8 9 8 7 7 9 11 12 11 10 11 9 8 8 10 10 11 11 11 9 8 8 9 11 11 11 12 13 14 14 13 13 14 13 13 13 13 12 12
3 3 3 3 3 3 2 2 3 2 0 2 2 3 5 5 5 4 4 3 3 4 4 3 3 4 2 2 2 3 3 3 3 2 1 2 3 4 4 3 5 2 2 3 6 9 10 9 10 8 5 5 7 9 9 10 10 9 9 8 7 7 8 9 8 8 9 7 6 6 7 9 10 10 11 12 14 15 13 12 12 13 13 14 12 12 12
3 3 2 2 1 1 1 1 3 3 4 5 4 5 4 5 2 6 4 5 2 1 2 2 2 2 1 2 2 1 2 1 3 4 3 3 5 4 5 4 3 3 5 8 7 8 6 9 5 4 6 8 9 8 6 6 6 9 9 7 7 8 8 10 10 10 9 9 9 9 8 9 9 10 11 11 12 13 13 12 11 11 11 12 11 11 10
4 2 1 2 2 1 2 0 2 2 4 4 5 5 5 5 2 2 3 1 1 2 2 1 2 2 2 1 4 1 2 2 3 3 2 3 4 5 2 1 2 6 6 7 10 9 10 7 3 3 4 7 5 4 6 7 7 5 5 6 7 9 10 10 10 10 10 10 9 9 9 9 10 10 10 11 10 11 11 12 12 12 11 11 11 11 10
2 1 0 1 2 1 2 2 4 4 2 4 5 4 5 3 2 1 1 1 2 1 1 1 1 2 3 2 3 5 4 1 4 2 2 5 5 1 1 5 6 5 8 10 10 8 6 5 4 4 6 5 6 5 6 7 3 5 5 6 6 9 10 11 12 12 11 11 11 11 10 10 10 10 10 10 9 10 10 11 12 13 12 12 11 10 10
1 0 1 2 2 2 3 4 3 4 4 5 3 2 3 2 4 5 2 2 2 2 3 2 5 3 5 4 2 4 2 1 5 4 3 3 3 2 1 3 6 6 6 8 8 5 6 5 3 5 5 4 5 6 8 7 5 5 6 6 7 8 10 11 11 11 12 13 12 11 10 11 11 11 10 11 11 10 10 10 11 11 10 10 10 10 11
0 1 1 1 1 1 3 3 4 7 7 5 4 4 4 5 5 2 0 1 3 3 1 3 1 2 3 2 4 3 5 4 3 2 3 5 5 4 4 4 7 9 7 7 7 6 6 5 3 6 7 7 8 7 5 4 4 5 5 6 7 8 9 10 11 12 13 12 11 11 11 11 11 10 11 11 11 10 10 10 11 9 10 11 11 11 10
0 1 0 1 2 5 4 2 4 7 6 5 5 6 4 5 4 1 1 3 1 1 3 1 1 4 2 0 2 3 3 3 4 1 4 8 7 6 6 9 7 6 6 5 6 4 4 5 4 3 4 7 9 6 3 2 2 4 5 5 5 6 8 10 11 12 13 12 13 13 13 11 11 11 12 12 10 11 10 10 10 10 10 10 11 11 11
1 1 3 5 6 1 3 5 5 6 5 4 5 4 4 5 3 1 3 2 2 4 3 4 4 3 2 2 1 2 3 2 4 7 7 6 2 4 9 10 6 5 7 5 3 4 1 2 5 5 6 5 3 6 7 3 2 2 3 3 4 5 6 9 11 12 12 12 13 14 13 12 11 12 11 12 12 12 11 10 9 9 10 10 10 11 11
0 1 4 5 6 7 6 4 4 5 4 4 4 2 3 5 2 2 0 2 1 3 4 2 1 2 1 3 4 1 2 1 4 4 6 6 5 7 7 7 4 5 6 4 3 6 6 5 5 6 8 5 4 5 5 3 1 1 2 2 2 4 5 7 9 11 11 11 12 12 11 11 13 12 12 13 13 12 11 9 9 10 10 9 9 10 11
Wind_Direction
332 330 331 334 338 343 345 347 350 356 350 358 355 307 276 280 331 84 69 56 236 237 234 168 202 226 195 71 224 191 215 260 146 247 174 219 208 222 228 275 248 155 304 206 218 256 139 275 266 92 207 98 19 40 331 304 253 267 251 246 142 277 243 202 237 349 81 98 118 174 220 194 183 110 83 199 220 215 204 200 249 297 212 218 225 235 87
331 330 331 333 337 342 345 346 350 355 13 343 308 295 339 318 301 156 131 166 242 244 223 206 213 218 142 226 230 179 264 232 203 231 195 243 182 234 219 189 261 12 232 235 252 196 237 147 219 169 194 140 56 6 340 233 250 311 30 306 82 259 184 281 219 149 289 187 172 172 152 230 220 169 125 217 262 229 261 332 268 265 279 279 259 247 161
329 330 330 333 337 341 344 346 344 352 359 347 306 326 324 288 230 253 207 171 216 244 274 257 223 199 211 204 221 194 207 223 251 257 213 200 255 233 215 275 144 213 178 225 224 185 297 159 177 359 196 92 110 60 333 236 275 15 23 322 356 267 337 187 238 214 215 193 179 229 182 206 331 87 213 153 223 207 208 214 197 239 229 239 251 92 62
328 329 329 332 339 341 343 344 342 343 358 337 275 303 285 331 275 160 198 205 208 247 302 280 271 205 205 221 217 232 232 162 205 227 213 229 200 265 38 166 232 192 200 207 211 199 191 272 139 216 171 149 138 48 320 229 93 72 41 293 266 302 221 226 292 204 219 264 330 267 50 90 238 43 355 67 164 236 235 270 237 229 211 240 38 112 159
325 327 328 332 341 343 342 343 340 338 348 359 300 271 278 306 274 352 251 189 231 234 207 225 231 251 153 244 170 217 231 152 172 194 226 184 214 189 234 186 216 181 240 226 211 197 194 187 198 206 215 118 97 112 195 136 113 171 205 244 285 245 242 126 13 244 90 178 204 176 153 126 76 178 76 57 51 171 236 229 256 29 330 253 98 139 134
322 326 328 334 341 344 342 343 342 336 336 340 261 294 337 276 65 305 39 299 180 217 189 318 252 262 243 244 201 231 215 201 207 160 267 152 197 230 170 230 240 247 239 210 235 172 210 199 206 155 197 191 168 178 172 198 147 222 218 229 278 291 274 58 65 121 157 183 169 145 132 113 116 60 64 59 55 54 254 1 48 294 228 274 148 159 119
320 324 328 333 340 344 343 342 343 338 329 333 282 318 39 307 342 360 30 256 292 315 342 315 296 263 237 238 225 227 229 224 217 232 176 204 192 224 231 212 214 227 227 230 231 174 218 184 147 232 170 229 195 205 166 171 181 220 179 211 350 262 181 344 88 164 159 140 135 157 144 136 114 96 65 62 54 59 42 48 39 317 121 116 145 121 102
316 321 326 332 336 345 342 343 348 340 332 316 270 35 318 31 331 34 320 275 280 284 290 276 267 242 153 250 207 239 225 231 192 209 220 198 210 183 246 247 220 215 214 219 235 190 264 6 205 173 234 180 233 270 294 70 178 236 196 184 138 281 107 221 198 176 137 197 181 185 187 148 114 96 95 83 69 65 54 52 42 93 102 108 125 129 119
312 315 325 330 334 345 341 345 353 342 336 354 3 56 15 343 341 332 309 284 259 273 251 249 253 255 193 237 191 229 223 225 209 234 224 240 216 195 229 238 192 192 210 217 247 200 217 238 270 176 211 265 163 254 148 246 231 203 196 213 157 258 135 207 235 242 179 192 270 15 265 221 129 102 96 95 64 54 43 34 31 324 146 149 147 157 151
306 311 323 326 331 342 340 348 353 349 324 343 334 15 4 281 199 246 282 275 118 261 208 243 252 240 237 297 88 275 162 120 250 237 218 231 254 258 247 233 215 186 217 218 232 176 202 200 68 163 14 278 244 208 332 228 282 216 227 195 227 268 179 214 212 248 230 170 226 280 288 280 238 206 94 72 71 76 92 79 348 21 57 169 203 109 115
304 309 315 317 323 334 345 345 5 352 344 25 359 2 9 355 339 288 244 278 235 239 265 238 237 344 359 96 288 270 283 241 300 263 167 209 211 234 254 240 222 207 212 153 69 97 87 93 121 131 180 244 180 199 184 167 235 302 253 202 207 231 232 232 228 257 226 164 221 242 255 251 236 67 320 308 334 202 285 115 110 124 7 59 56 117 118
300 303 310 310 308 317 344 341 5 5 342 21 341 341 16 320 271 266 274 266 263 215 256 258 264 235 246 325 286 291 281 272 276 279 288 252 352 252 226 225 224 233 102 113 123 108 107 113 128 153 167 183 193 180 199 189 142 198 245 261 219 224 228 244 232 248 251 138 216 232 236 244 71 325 64 238 271 254 247 123 145 146 143 123 113 116 116
294 296 302 308 303 273 324 325 335 52 344 345 343 351 27 339 302 304 296 281 279 268 258 249 247 271 274 279 278 267 273 284 280 278 272 272 264 230 224 214 211 75 140 143 146 163 179 172 153 217 193 207 239 238 201 191 177 175 226 255 257 222 227 197 224 252 282 252 222 244 135 166 186 146 104 55 262 116 186 184 180 185 180 150 147 146 132
290 292 298 303 297 255 202 282 321 112 352 323 338 353 360 295 290 262 266 281 262 269 299 291 265 254 252 258 275 282 278 268 267 268 265 244 249 244 202 217 60 104 169 154 167 172 173 191 205 201 199 212 200 240 196 170 179 218 201 204 240 256 264 238 231 197 261 256 250 254 107 208 174 183 193 195 174 180 236 246 162 177 182 166 164 161 147
289 289 292 294 293 251 205 208 264 241 183 292 316 303 307 274 259 292 303 275 278 291 267 265 17 26 324 284 290 280 257 258 264 240 227 262 263 249 282 162 146 175 162 177 168 200 236 200 234 234 207 207 219 219 159 214 152 146 164 205 221 221 254 180 262 189 242 269 250 253 231 256 169 140 129 179 155 32 141 256 133 154 173 159 157 162 150
288 288 287 286 287 266 218 190 183 225 184 266 268 299 313 291 242 259 275 283 299 270 242 311 342 325 299 288 294 285 284 282 270 280 248 215 238 210 186 193 174 179 187 205 201 206 204 228 242 234 248 231 119 322 214 211 206 169 184 181 207 204 228 228 245 231 221 240 258 252 267 175 156 150 147 141 152 170 126 255 210 151 166 155 162 159 160
287 286 286 282 280 265 215 187 186 213 190 259 305 311 281 159 207 256 271 243 233 262 5 292 325 300 294 274 228 223 232 257 315 263 238 200 167 171 127 158 157 185 188 193 186 208 204 223 246 266 262 120 215 236 343 227 232 187 176 202 200 204 208 216 228 247 227 253 244 253 241 178 85 130 161 139 138 183 228 240 184 152 167 156 165 160 167
284 284 286 280 275 258 221 183 188 213 207 229 282 301 285 192 227 238 240 256 263 270 268 291 270 252 253 324 296 11 300 252 231 229 265 322 253 178 113 162 173 179 247 218 182 217 227 226 237 231 250 103 355 83 243 195 219 210 192 195 199 201 220 214 245 231 203 221 257 261 248 108 149 147 147 146 158 251 233 250 105 160 134 158 156 157 162
285 284 280 279 278 257 210 177 180 208 199 211 258 279 239 215 211 220 275 268 249 252 75 67 294 285 329 322 277 316 327 336 340 284 257 223 162 349 297 305 302 189 192 213 192 222 225 219 246 265 260 159 194 236 139 201 220 178 202 197 212 216 225 218 240 247 232 214 247 245 338 81 147 146 159 134 188 206 247 73 162 147 162 164 155 152 153
283 283 280 280 278 243 194 180 189 195 199 215 252 285 309 217 215 229 252 268 265 266 276 280 276 270 266 276 267 236 208 213 236 272 274 264 39 310 192 199 205 263 179 206 210 211 231 234 198 184 248 230 184 119 222 210 9 217 204 203 237 193 212 212 212 224 255 236 250 267 256 117 215 139 147 161 234 81 116 133 141 149 145 150 150 155 146
278 276 277 276 263 227 190 187 192 199 204 198 232 284 276 193 207 212 239 271 283 280 270 50 348 292 278 262 256 267 272 269 272 255 297 305 18 325 202 194 167 190 189 190 215 192 213 237 173 221 323 293 116 207 232 189 180 147 275 205 239 90 234 214 201 190 241 215 232 250 18 110 160 178 228 172 352 54 109 127 136 145 153 159 156 159 160
272 273 273 272 252 213 192 198 201 207 205 197 232 264 277 148 201 212 252 262 247 247 285 330 312 290 280 274 274 272 269 264 272 291 288 281 223 261 323 304 302 305 349 246 213 144 204 242 140 219 206 194 157 223 208 215 213 142 167 210 217 159 265 348 272 166 246 284 2 86 82 114 156 145 88 67 110 123 105 96 135 158 151 163 165 157 159
270 268 271 265 232 211 196 203 209 201 202 182 205 250 279 302 227 215 237 254 257 266 272 274 271 270 263 256 246 242 244 249 260 258 251 261 270 239 253 276 277 293 289 337 317 291 193 185 217 228 232 205 210 193 198 250 290 148 188 188 342 49 78 284 245 181 220 121 30 82 126 166 171 184 51 90 143 178 178 148 156 154 149 172 169 158 163
265 265 268 250 218 212 203 208 209 196 194 187 230 264 269 257 261 257 236 250 274 299 280 230 244 243 235 293 159 199 221 231 233 236 233 235 248 257 229 235 282 287 188 45 1 313 344 233 31 193 247 186 207 220 209 203 235 172 193 174 194 138 177 203 225 111 207 205 146 204 128 152 172 154 135 131 158 153 160 155 158 156 164 159 156 161 166
261 264 255 227 216 214 210 215 210 190 189 185 226 247 260 265 237 236 239 262 269 294 303 292 245 283 321 286 254 244 221 222 212 216 216 214 222 235 269 53 316 323 14 354 341 267 242 216 177 200 232 129 220 227 176 272 172 177 232 151 163 180 187 219 205 175 229 69 131 120 99 86 133 163 156 162 148 144 138 144 141 140 144 147 148 152 163
265 255 231 214 215 214 215 217 210 191 185 200 263 258 246 255 233 227 248 268 277 268 276 285 322 102 296 285 252 248 210 205 211 206 212 214 217 228 256 283 277 330 316 311 310 280 244 232 230 220 236 165 223 260 221 240 11 179 260 134 29 99 161 213 186 214 137 116 154 134 145 158 168 166 163 150 153 148 142 138 136 134 133 134 143 154 151
254 227 213 211 211 212 215 215 202 193 182 205 229 248 249 254 255 237 229 245 265 233 217 250 281 283 322 300 292 287 264 244 231 224 212 212 218 225 237 247 264 285 291 291 270 269 261 252 234 223 224 102 187 257 50 177 218 199 215 125 148 160 206 160 189 208 206 207 176 174 187 188 178 179 158 144 145 145 137 139 140 139 136 138 137 141 148
218 188 194 191 176 169 167 181 190 178 172 225 251 253 255 250 242 243 233 242 243 296 328 308 299 309 319 278 273 251 221 211 218 219 218 206 203 214 223 230 237 250 242 262 251 212 221 220 215 92 95 125 193 173 239 51 242 229 230 190 186 220 180 191 209 225 232 181 169 187 234 279 170 165 149 147 148 148 146 145 140 137 137 140 140 140 141
181 178 167 168 169 169 165 179 187 189 163 277 263 263 258 242 239 229 230 222 240 268 279 283 280 267 283 18 327 278 250 230 219 216 215 205 197 203 213 219 224 224 240 255 282 304 255 238 153 199 198 127 235 177 172 216 215 230 227 165 192 230 173 204 224 242 314 227 168 179 202 213 152 150 147 150 154 152 148 143 141 140 140 144 144 147 145
166 157 168 178 192 193 210 223 220 216 227 239 245 258 249 146 181 228 216 217 213 235 275 301 305 309 342 307 279 279 240 207 215 214 213 203 196 198 206 205 213 217 231 248 293 251 258 244 138 71 62 274 236 156 230 219 233 222 113 174 192 184 201 211 209 235 163 160 163 159 130 154 141 144 150 149 158 156 150 149 149 147 147 149 149 148 149
164 172 181 201 216 218 230 237 240 240 246 238 237 250 243 224 126 217 184 209 200 212 245 260 266 303 288 236 255 271 275 229 209 206 206 205 200 197 192 186 203 191 209 207 212 253 288 229 180 111 77 358 309 202 230 225 239 250 192 201 189 204 203 195 121 77 101 135 126 116 128 145 139 143 148 155 160 157 145 148 147 149 147 152 152 154 154
173 172 180 211 227 223 226 232 239 234 229 226 226 299 360 20 65 91 155 202 177 214 244 285 282 242 289 248 187 263 274 267 228 203 194 188 193 190 186 193 196 192 208 197 198 228 247 338 153 134 157 40 290 230 228 240 248 257 137 223 201 212 201 182 162 132 121 140 135 133 146 157 163 164 158 162 161 157 151 148 151 145 154 156 149 155 154
178 174 193 222 222 234 247 241 233 243 255 317 330 309 277 239 255 270 295 174 188 240 278 274 270 303 277 19 317 193 316 232 200 192 176 183 189 179 187 194 189 181 186 223 177 193 111 297 93 117 43 285 239 181 243 244 247 261 279 297 220 184 186 175 166 149 157 170 169 169 166 174 172 167 154 159 161 159 153 154 150 152 158 152 155 154 157
182 188 196 229 252 270 258 233 214 237 262 267 244 216 192 185 207 226 247 252 242 242 237 268 293 286 292 315 250 89 322 260 181 187 181 171 178 197 182 175 180 179 169 209 149 130 133 266 156 98 155 179 244 240 235 235 245 256 261 268 112 155 164 171 178 178 177 182 187 215 179 159 159 150 155 160 161 160 157 156 158 162 163 164 163 162 155
175 195 214 232 257 275 245 208 228 226 250 238 252 140 104 152 185 172 196 226 233 188 203 221 249 291 296 245 219 70 341 283 198 179 216 137 193 214 162 188 170 208 159 228 185 179 186 192 131 197 206 115 211 229 240 264 284 250 239 238 187 173 170 190 199 194 182 182 167 133 143 147 149 156 162 165 164 163 162 165 167 167 168 173 169 167 163
194 214 239 256 257 239 225 199 235 226 219 222 93 82 104 135 145 168 194 225 300 329 279 309 276 282 314 292 340 44 332 280 109 176 145 139 173 157 219 175 189 150 73 200 197 178 209 133 200 220 138 212 224 219 210 328 292 280 272 270 246 202 203 205 191 181 179 172 162 150 161 165 165 162 164 167 165 167 169 169 169 171 168 167 169 172 169
209 242 248 244 227 218 214 215 156 224 11 58 89 124 132 131 126 160 184 263 236 246 275 299 275 269 293 321 306 321 329 247 69 203 166 194 164 138 201 198 180 94 194 195 203 213 159 92 235 224 198 223 221 200 199 226 259 266 265 250 230 218 228 245 194 166 163 163 159 162 169 179 173 163 167 169 170 171 173 175 173 172 171 169 170 174 172
213 232 229 202 203 210 174 178 184 125 112 124 144 145 163 213 149 178 181 234 201 202 224 234 256 276 287 267 276 41 303 184 271 211 154 15 198 159 91 77 264 303 203 200 97 348 37 198 212 233 229 211 220 191 214 216 232 243 256 256 239 215 208 190 161 164 160 161 172 173 174 180 175 173 173 172 173 177 179 176 173 171 170 172 171 169 168
217 196 222 214 233 202 83 110 101 134 170 156 240 242 176 194 198 202 199 197 174 227 209 234 255 250 255 253 266 139 334 326 277 210 208 46 296 166 194 175 131 208 14 328 142 61 253 233 282 247 250 195 208 225 218 223 240 248 258 262 256 218 190 184 184 180 178 183 182 180 178 178 178 179 179 175 176 178 176 174 173 172 168 166 165 165 166
196 196 197 180 218 89 94 122 142 179 189 206 197 245 222 187 230 209 131 221 230 225 196 232 227 250 256 278 312 241 84 283 244 256 75 116 335 296 65 356 88 220 204 207 210 130 249 243 210 245 257 236 219 213 208 210 233 240 239 234 239 226 202 193 195 203 203 204 190 185 186 184 178 172 174 174 174 175 176 175 173 166 166 164 163 168 168
213 234 203 200 86 96 134 145 175 207 211 212 189 214 241 226 216 247 221 232 246 207 190 257 178 222 203 238 239 255 109 270 271 307 279 115 45 278 202 179 220 245 242 207 155 199 206 234 236 220 243 242 237 208 199 215 237 247 242 221 214 219 212 213 211 211 217 223 206 189 191 189 182 176 173 172 173 174 175 172 170 167 164 161 166 172 167
204 312 354 346 316 270 181 186 215 203 205 241 250 229 218 262 199 216 232 250 210 188 166 208 222 243 164 223 234 271 195 37 299 272 255 178 281 274 120 104 193 231 227 134 132 202 216 231 234 242 230 234 229 228 226 229 226 233 235 218 201 202 208 210 213 213 214 213 196 185 185 189 182 179 176 173 171 171 169 167 165 166 165 166 170 168 166
289 251 275 266 213 193 207 205 188 245 193 172 175 258 213 227 218 236 191 206 287 274 108 220 307 346 82 254 215 228 352 43 259 191 237 153 156 239 182 174 162 214 221 135 179 163 210 227 230 237 233 223 218 229 233 238 242 243 244 224 196 201 209 209 207 206 203 206 198 185 179 180 177 174 174 171 169 168 165 163 162 165 167 167 169 167 168
233 243 220 208 203 172 204 196 177 142 129 222 196 213 198 217 201 203 242 188 165 218 193 207 183 232 182 148 284 132 181 187 240 249 208 145 207 191 207 209 211 179 114 221 216 214 227 231 236 236 190 197 231 231 230 231 233 233 237 221 191 197 204 211 207 205 197 192 191 179 176 173 170 170 173 173 171 168 163 161 162 163 161 162 165 168 166
218 197 214 186 185 131 111 241 208 201 219 194 219 256 219 245 174 192 243 86 208 79 150 223 215 225 192 93 232 204 274 202 124 250 191 187 223 207 224 234 143 183 223 234 231 248 247 250 224 229 246 244 241 245 261 267 244 229 230 211 187 197 198 200 195 191 185 181 179 171 172 167 164 165 168 170 172 166 157 155 154 155 157 160 157 154 155
202 181 178 176 205 244 226 196 143 211 244 235 220 229 238 245 275 256 56 65 211 165 208 118 227 207 226 108 296 52 167 232 217 222 217 223 233 222 217 47 229 242 235 244 249 252 252 262 243 225 241 258 270 302 280 245 219 206 203 214 202 195 197 196 192 188 184 180 176 174 168 167 164 160 161 162 162 164 160 152 154 155 154 154 157 154 153
245 139 249 258 238 180 207 208 196 216 268 236 236 249 256 284 316 327 336 269 236 163 290 256 323 321 278 164 216 195 209 248 250 151 228 239 232 83 326 249 228 223 241 245 249 255 267 277 267 251 252 276 290 287 279 271 232 210 218 225 210 200 195 195 191 189 184 177 172 169 166 167 159 152 148 152 156 159 154 154 157 156 158 161 156 150 153
199 212 197 216 218 170 192 225 242 261 247 257 264 258 277 299 255 230 220 245 273 251 241 230 223 184 214 147 259 295 356 158 253 203 196 279 55 268 223 230 238 232 235 255 259 266 265 272 265 261 265 274 281 268 259 261 255 238 228 223 218 204 196 193 190 185 178 174 171 165 161 159 151 148 152 152 152 152 151 153 155 157 153 145 144 148 152
237 177 192 244 251 223 246 237 229 244 234 226 236 244 235 228 241 223 187 253 248 239 2 267 291 289 262 70 278 237 230 163 223 228 186 214 227 215 203 239 232 239 229 244 260 264 268 272 324 347 333 305 269 261 266 273 278 275 257 239 225 208 196 194 189 181 175 173 168 161 160 157 149 145 143 144 145 146 147 146 148 148 146 144 145 146 150
170 223 347 233 234 220 221 244 251 246 231 224 230 235 231 245 231 127 282 232 158 182 190 101 327 250 319 328 233 235 265 211 238 172 227 234 230 237 233 247 245 255 250 225 242 257 302 332 353 346 301 293 296 301 308 316 292 274 273 265 249 218 200 194 187 180 177 173 170 163 154 151 150 148 151 153 145 138 140 145 146 145 145 146 145 146 149
315 287 255 240 258 12 149 218 233 246 230 231 239 234 237 247 240 125 11 316 241 231 181 219 203 193 196 195 235 234 218 224 243 229 233 228 163 245 242 250 253 286 287 269 253 250 266 314 306 325 297 277 299 290 288 316 309 270 267 263 245 229 213 198 188 180 177 175 167 158 157 159 156 147 139 131 130 134 131 137 143 142 142 145 147 146 146
157 207 235 223 234 249 260 280 275 260 276 295 275 251 267 248 181 117 360 255 201 239 284 359 198 218 188 225 223 275 46 173 246 250 245 243 236 253 250 268 274 225 268 350 332 305 315 316 307 284 273 269 260 272 289 300 294 226 187 188 213 219 218 204 186 179 173 171 166 160 155 149 141 134 133 135 135 136 139 141 143 143 141 140 140 139 137